Time,TemperatureF,DewpointF,PressureIn,WindDirection,WindDirectionDegrees,WindSpeedMPH,WindSpeedGustMPH,Humidity,HourlyPrecipIn,Conditions,Clouds,dailyrainin,SoftwareType,DateUTC
2013-02-06 00:00:00,54.9,45.7,29.99,WNW,292,1.0,1.0,71,0.00,,---,0.00,VWS V14.01,2013-02-06 05:00:00,
2013-02-06 00:05:00,54.9,45.7,29.99,WNW,292,1.0,1.0,71,0.00,,---,0.00,VWS V14.01,2013-02-06 05:05:00,
2013-02-06 00:10:00,54.9,45.7,29.99,WNW,292,1.0,1.0,71,0.00,,---,0.00,VWS V14.01,2013-02-06 05:10:00,
2013-02-06 00:15:00,54.9,45.7,29.99,WNW,292,1.0,1.0,71,0.00,,---,0.00,VWS V14.01,2013-02-06 05:15:00,
2013-02-06 00:20:00,54.9,45.7,29.99,WNW,292,1.0,1.0,71,0.00,,---,0.00,VWS V14.01,2013-02-06 05:20:00,
2013-02-06 00:25:00,54.9,45.7,29.99,WNW,292,1.0,1.0,71,0.00,,---,0.00,VWS V14.01,2013-02-06 05:25:00,
2013-02-06 00:30:00,54.9,45.7,29.99,WNW,292,1.0,1.0,71,0.00,,---,0.00,VWS V14.01,2013-02-06 05:30:00,
2013-02-06 00:35:00,54.9,45.7,29.99,WNW,292,1.0,1.0,71,0.00,,---,0.00,VWS V14.01,2013-02-06 05:35:00,
2013-02-06 00:40:00,54.9,45.7,30.00,WNW,292,1.0,1.0,71,0.00,,---,0.00,VWS V14.01,2013-02-06 05:40:00,
2013-02-06 00:45:00,54.9,45.7,30.00,WNW,298,0.0,1.0,71,0.00,,---,0.00,VWS V14.01,2013-02-06 05:45:00,
2013-02-06 00:50:00,50.8,43.5,30.00,WNW,298,0.0,1.0,76,0.00,,---,0.00,VWS V14.01,2013-02-06 05:50:00,
2013-02-06 00:55:00,50.7,43.8,30.00,WNW,298,0.0,1.0,77,0.00,,---,0.00,VWS V14.01,2013-02-06 05:55:00,
2013-02-06 01:00:00,50.8,43.9,30.00,WNW,298,0.0,1.0,77,0.00,,---,0.00,VWS V14.01,2013-02-06 06:00:00,
2013-02-06 01:05:00,50.9,44.3,30.00,WNW,298,0.0,0.0,78,0.00,,---,0.00,VWS V14.01,2013-02-06 06:05:00,
2013-02-06 01:10:00,51.0,44.4,29.99,WNW,298,0.0,0.0,78,0.00,,---,0.00,VWS V14.01,2013-02-06 06:10:00,
2013-02-06 01:15:00,51.3,44.7,30.00,West,281,0.0,0.0,78,0.00,,---,0.00,VWS V14.01,2013-02-06 06:15:00,
2013-02-06 01:20:00,51.5,44.9,30.00,West,269,0.0,0.0,78,0.00,,---,0.00,VWS V14.01,2013-02-06 06:20:00,
2013-02-06 01:25:00,51.8,45.2,30.00,WNW,288,0.0,0.0,78,0.00,,---,0.00,VWS V14.01,2013-02-06 06:25:00,
2013-02-06 01:30:00,51.9,44.9,30.00,WNW,290,0.0,0.0,77,0.00,,---,0.00,VWS V14.01,2013-02-06 06:30:00,
2013-02-06 01:34:00,51.9,44.6,30.00,WNW,290,0.0,0.0,76,0.00,,---,0.00,VWS V14.01,2013-02-06 06:34:00,
2013-02-06 01:39:00,51.9,44.6,30.00,WNW,294,0.0,0.0,76,0.00,,---,0.00,VWS V14.01,2013-02-06 06:39:00,
2013-02-06 01:44:00,51.9,44.6,30.00,WNW,287,0.0,0.0,76,0.00,,---,0.00,VWS V14.01,2013-02-06 06:44:00,
2013-02-06 01:49:00,52.0,45.0,30.00,NW,309,0.0,0.0,77,0.00,,---,0.00,VWS V14.01,2013-02-06 06:49:00,
2013-02-06 01:54:00,52.0,44.7,30.00,WNW,299,0.0,0.0,76,0.00,,---,0.00,VWS V14.01,2013-02-06 06:54:00,
2013-02-06 01:59:00,52.0,45.0,30.00,NW,309,0.0,0.0,77,0.00,,---,0.00,VWS V14.01,2013-02-06 06:59:00,
2013-02-06 02:00:00,52.1,45.1,30.00,WNW,303,0.0,0.0,77,0.00,,---,0.00,VWS V14.01,2013-02-06 07:00:00,
2013-02-06 02:04:00,52.1,44.8,30.00,WNW,303,0.0,0.0,76,0.00,,---,0.00,VWS V14.01,2013-02-06 07:04:00,
2013-02-06 02:09:00,52.2,45.2,30.00,WSW,243,0.0,0.0,77,0.00,,---,0.00,VWS V14.01,2013-02-06 07:09:00,
2013-02-06 02:14:00,52.5,45.2,30.00,WNW,290,0.0,0.0,76,0.00,,---,0.00,VWS V14.01,2013-02-06 07:14:00,
2013-02-06 02:19:00,52.6,45.3,30.00,WNW,294,0.0,0.0,76,0.00,,---,0.00,VWS V14.01,2013-02-06 07:19:00,
2013-02-06 02:24:00,52.7,45.4,30.00,WNW,301,0.0,0.0,76,0.00,,---,0.00,VWS V14.01,2013-02-06 07:24:00,
2013-02-06 02:29:00,52.7,45.0,30.00,WNW,301,0.0,0.0,75,0.00,,---,0.00,VWS V14.01,2013-02-06 07:29:00,
2013-02-06 02:30:00,52.7,45.0,30.00,WNW,301,0.0,0.0,75,0.00,,---,0.00,VWS V14.01,2013-02-06 07:30:00,
2013-02-06 02:34:00,52.6,44.9,30.00,WNW,300,0.0,0.0,75,0.00,,---,0.00,VWS V14.01,2013-02-06 07:34:00,
2013-02-06 02:39:00,52.4,44.7,30.00,WNW,300,0.0,0.0,75,0.00,,---,0.00,VWS V14.01,2013-02-06 07:39:00,
2013-02-06 02:44:00,52.2,44.5,30.00,WNW,300,0.0,0.0,75,0.00,,---,0.00,VWS V14.01,2013-02-06 07:44:00,
2013-02-06 02:49:00,52.0,44.3,30.00,WNW,299,0.0,0.0,75,0.00,,---,0.00,VWS V14.01,2013-02-06 07:49:00,
2013-02-06 02:54:00,51.8,44.5,30.00,WNW,299,0.0,0.0,76,0.00,,---,0.00,VWS V14.01,2013-02-06 07:54:00,
2013-02-06 02:59:00,51.8,44.5,30.00,WNW,294,0.0,0.0,76,0.00,,---,0.00,VWS V14.01,2013-02-06 07:59:00,
2013-02-06 03:00:00,51.8,44.5,30.00,WNW,294,0.0,0.0,76,0.00,,---,0.00,VWS V14.01,2013-02-06 08:00:00,
2013-02-06 03:04:00,51.8,44.5,30.00,WNW,294,0.0,0.0,76,0.00,,---,0.00,VWS V14.01,2013-02-06 08:04:00,
2013-02-06 03:09:00,51.8,44.5,30.00,WNW,294,0.0,0.0,76,0.00,,---,0.00,VWS V14.01,2013-02-06 08:09:00,
2013-02-06 03:14:00,51.7,44.4,30.00,WNW,294,0.0,0.0,76,0.00,,---,0.00,VWS V14.01,2013-02-06 08:14:00,
2013-02-06 03:19:00,51.8,44.5,30.00,WNW,294,0.0,0.0,76,0.00,,---,0.00,VWS V14.01,2013-02-06 08:19:00,
2013-02-06 03:24:00,51.8,44.8,30.00,WNW,294,0.0,0.0,77,0.00,,---,0.00,VWS V14.01,2013-02-06 08:24:00,
2013-02-06 03:29:00,51.9,44.9,30.00,WNW,289,0.0,0.0,77,0.00,,---,0.00,VWS V14.01,2013-02-06 08:29:00,
2013-02-06 03:30:00,51.9,44.9,30.00,WNW,289,0.0,0.0,77,0.00,,---,0.00,VWS V14.01,2013-02-06 08:30:00,
2013-02-06 03:34:00,52.0,45.0,30.00,WNW,290,0.0,0.0,77,0.00,,---,0.00,VWS V14.01,2013-02-06 08:34:00,
2013-02-06 03:39:00,52.0,45.0,30.00,WNW,290,0.0,0.0,77,0.00,,---,0.00,VWS V14.01,2013-02-06 08:39:00,
2013-02-06 03:44:00,52.0,44.7,30.00,WNW,290,0.0,0.0,76,0.00,,---,0.00,VWS V14.01,2013-02-06 08:44:00,
2013-02-06 03:49:00,52.0,44.7,30.00,NW,316,0.0,0.0,76,0.00,,---,0.00,VWS V14.01,2013-02-06 08:49:00,
2013-02-06 03:54:00,52.1,45.1,30.00,WNW,295,0.0,0.0,77,0.00,,---,0.00,VWS V14.01,2013-02-06 08:54:00,
2013-02-06 03:59:00,52.2,45.2,30.00,WNW,296,0.0,0.0,77,0.00,,---,0.00,VWS V14.01,2013-02-06 08:59:00,
2013-02-06 04:00:00,52.2,45.2,30.00,WNW,296,0.0,0.0,77,0.00,,---,0.00,VWS V14.01,2013-02-06 09:00:00,
2013-02-06 04:04:00,52.3,45.3,30.00,NW,309,0.0,0.0,77,0.00,,---,0.00,VWS V14.01,2013-02-06 09:04:00,
2013-02-06 04:09:00,52.4,45.1,30.00,WNW,285,0.0,0.0,76,0.00,,---,0.00,VWS V14.01,2013-02-06 09:09:00,
2013-02-06 04:14:00,52.4,45.1,30.00,West,268,0.0,0.0,76,0.00,,---,0.00,VWS V14.01,2013-02-06 09:14:00,
2013-02-06 04:19:00,52.5,45.2,30.01,West,275,0.0,0.0,76,0.00,,---,0.00,VWS V14.01,2013-02-06 09:19:00,
2013-02-06 04:24:00,52.5,45.2,30.01,WNW,298,0.0,0.0,76,0.00,,---,0.00,VWS V14.01,2013-02-06 09:24:00,
2013-02-06 04:29:00,52.5,45.2,30.01,WNW,298,0.0,0.0,76,0.00,,---,0.00,VWS V14.01,2013-02-06 09:29:00,
2013-02-06 04:30:00,52.5,45.2,30.01,WNW,297,0.0,0.0,76,0.00,,---,0.00,VWS V14.01,2013-02-06 09:30:00,
2013-02-06 04:34:00,52.6,45.3,30.01,WNW,288,0.0,0.0,76,0.00,,---,0.00,VWS V14.01,2013-02-06 09:34:00,
2013-02-06 04:39:00,52.5,45.2,30.01,WNW,292,0.0,0.0,76,0.00,,---,0.00,VWS V14.01,2013-02-06 09:39:00,
2013-02-06 04:44:00,52.5,45.2,30.02,WNW,293,0.0,0.0,76,0.00,,---,0.00,VWS V14.01,2013-02-06 09:44:00,
2013-02-06 04:49:00,52.4,45.1,30.02,NW,315,0.0,0.0,76,0.00,,---,0.00,VWS V14.01,2013-02-06 09:49:00,
2013-02-06 04:54:00,52.3,45.0,30.01,NW,309,0.0,0.0,76,0.00,,---,0.00,VWS V14.01,2013-02-06 09:54:00,
2013-02-06 04:59:00,52.3,45.0,30.01,WNW,297,0.0,0.0,76,0.00,,---,0.00,VWS V14.01,2013-02-06 09:59:00,
2013-02-06 05:00:00,52.2,44.9,30.02,WNW,297,0.0,0.0,76,0.00,,---,0.00,VWS V14.01,2013-02-06 10:00:00,
2013-02-06 05:04:00,52.2,44.9,30.02,WNW,299,0.0,0.0,76,0.00,,---,0.00,VWS V14.01,2013-02-06 10:04:00,
2013-02-06 05:09:00,52.1,44.8,30.02,WNW,299,0.0,0.0,76,0.00,,---,0.00,VWS V14.01,2013-02-06 10:09:00,
2013-02-06 05:14:00,52.0,44.7,30.02,WNW,292,0.0,0.0,76,0.00,,---,0.00,VWS V14.01,2013-02-06 10:14:00,
2013-02-06 05:19:00,52.0,44.7,30.02,WNW,299,0.0,0.0,76,0.00,,---,0.00,VWS V14.01,2013-02-06 10:19:00,
2013-02-06 05:24:00,51.9,44.6,30.02,WNW,300,0.0,0.0,76,0.00,,---,0.00,VWS V14.01,2013-02-06 10:24:00,
2013-02-06 05:29:00,51.9,44.9,30.03,WNW,303,0.0,0.0,77,0.00,,---,0.00,VWS V14.01,2013-02-06 10:29:00,
2013-02-06 05:30:00,51.9,44.9,30.02,WNW,302,0.0,0.0,77,0.00,,---,0.00,VWS V14.01,2013-02-06 10:30:00,
2013-02-06 05:34:00,51.9,44.9,30.03,WNW,299,0.0,0.0,77,0.00,,---,0.00,VWS V14.01,2013-02-06 10:34:00,
2013-02-06 05:39:00,51.7,44.7,30.03,NW,307,0.0,0.0,77,0.00,,---,0.00,VWS V14.01,2013-02-06 10:39:00,
2013-02-06 05:44:00,51.6,44.6,30.02,NW,316,0.0,0.0,77,0.00,,---,0.00,VWS V14.01,2013-02-06 10:44:00,
2013-02-06 05:49:00,51.5,44.5,30.02,NW,307,0.0,0.0,77,0.00,,---,0.00,VWS V14.01,2013-02-06 10:49:00,
2013-02-06 05:54:00,51.4,44.4,30.03,NW,307,0.0,0.0,77,0.00,,---,0.00,VWS V14.01,2013-02-06 10:54:00,
2013-02-06 05:59:00,51.4,44.4,30.03,NW,307,0.0,0.0,77,0.00,,---,0.00,VWS V14.01,2013-02-06 10:59:00,
2013-02-06 06:00:00,51.4,44.4,30.03,NW,307,0.0,0.0,77,0.00,,---,0.00,VWS V14.01,2013-02-06 11:00:00,
2013-02-06 06:04:00,51.4,44.4,30.03,NW,307,0.0,0.0,77,0.00,,---,0.00,VWS V14.01,2013-02-06 11:04:00,
2013-02-06 06:09:00,51.4,44.4,30.04,NW,307,0.0,0.0,77,0.00,,---,0.00,VWS V14.01,2013-02-06 11:09:00,
2013-02-06 06:14:00,51.4,44.4,30.04,NW,307,0.0,0.0,77,0.00,,---,0.00,VWS V14.01,2013-02-06 11:14:00,
2013-02-06 06:19:00,51.4,44.4,30.04,NW,307,0.0,0.0,77,0.00,,---,0.00,VWS V14.01,2013-02-06 11:19:00,
2013-02-06 06:24:00,51.4,44.4,30.04,NW,307,0.0,0.0,77,0.00,,---,0.00,VWS V14.01,2013-02-06 11:24:00,
2013-02-06 06:29:00,51.4,44.4,30.04,NW,307,0.0,0.0,77,0.00,,---,0.00,VWS V14.01,2013-02-06 11:29:00,
2013-02-06 06:30:00,51.4,44.4,30.04,NW,307,0.0,0.0,77,0.00,,---,0.00,VWS V14.01,2013-02-06 11:30:00,
2013-02-06 06:34:00,51.4,44.4,30.05,NW,307,0.0,0.0,77,0.00,,---,0.00,VWS V14.01,2013-02-06 11:34:00,
2013-02-06 06:39:00,51.4,44.4,30.05,NW,307,0.0,0.0,77,0.00,,---,0.00,VWS V14.01,2013-02-06 11:39:00,
2013-02-06 06:44:00,51.4,44.4,30.05,NW,307,0.0,0.0,77,0.00,,---,0.00,VWS V14.01,2013-02-06 11:44:00,
2013-02-06 06:49:00,51.4,44.4,30.06,NW,307,0.0,0.0,77,0.00,,---,0.00,VWS V14.01,2013-02-06 11:49:00,
2013-02-06 06:54:00,51.4,44.4,30.06,NW,307,0.0,0.0,77,0.00,,---,0.00,VWS V14.01,2013-02-06 11:54:00,
2013-02-06 06:59:00,51.4,44.4,30.07,NW,307,0.0,0.0,77,0.00,,---,0.00,VWS V14.01,2013-02-06 11:59:00,
2013-02-06 07:00:00,51.4,44.4,30.07,NW,307,0.0,0.0,77,0.00,,---,0.00,VWS V14.01,2013-02-06 12:00:00,
2013-02-06 07:04:00,51.4,44.4,30.07,NW,307,0.0,0.0,77,0.00,,---,0.00,VWS V14.01,2013-02-06 12:04:00,
2013-02-06 07:09:00,51.4,44.4,30.07,NW,307,0.0,0.0,77,0.00,,---,0.00,VWS V14.01,2013-02-06 12:09:00,
2013-02-06 07:14:00,51.4,44.4,30.07,NW,307,0.0,0.0,77,0.00,,---,0.00,VWS V14.01,2013-02-06 12:14:00,
2013-02-06 07:19:00,51.4,44.4,30.07,NW,307,0.0,0.0,77,0.00,,---,0.00,VWS V14.01,2013-02-06 12:19:00,
2013-02-06 07:24:00,51.4,44.4,30.07,NW,307,0.0,0.0,77,0.00,,---,0.00,VWS V14.01,2013-02-06 12:24:00,
2013-02-06 07:29:00,51.4,44.4,30.07,NW,307,0.0,0.0,77,0.00,,---,0.00,VWS V14.01,2013-02-06 12:29:00,
2013-02-06 07:30:00,51.4,44.4,30.08,NW,307,0.0,0.0,77,0.00,,---,0.00,VWS V14.01,2013-02-06 12:30:00,
2013-02-06 07:34:00,51.4,44.4,30.08,NW,307,0.0,0.0,77,0.00,,---,0.00,VWS V14.01,2013-02-06 12:34:00,
2013-02-06 07:39:00,51.4,44.4,30.08,NW,307,0.0,0.0,77,0.00,,---,0.00,VWS V14.01,2013-02-06 12:39:00,
2013-02-06 07:44:00,48.5,41.6,30.08,SW,230,0.0,0.0,77,0.00,,---,0.00,VWS V14.01,2013-02-06 12:44:00,
2013-02-06 07:49:00,48.7,46.8,30.08,NNW,329,0.0,1.0,93,0.00,,---,0.00,VWS V14.01,2013-02-06 12:49:00,
2013-02-06 07:54:00,48.9,47.0,30.08,WSW,252,1.0,1.0,93,0.00,,---,0.00,VWS V14.01,2013-02-06 12:54:00,
2013-02-06 07:59:00,49.1,47.2,30.08,NNW,327,1.0,2.0,93,0.00,,---,0.00,VWS V14.01,2013-02-06 12:59:00,
2013-02-06 08:00:00,49.1,47.2,30.08,South,191,0.0,2.0,93,0.00,,---,0.00,VWS V14.01,2013-02-06 13:00:00,
2013-02-06 08:04:00,49.3,47.4,30.08,NW,307,1.0,1.0,93,0.00,,---,0.00,VWS V14.01,2013-02-06 13:04:00,
2013-02-06 08:09:00,49.5,47.6,30.08,West,267,0.0,2.0,93,0.00,,---,0.00,VWS V14.01,2013-02-06 13:09:00,
2013-02-06 08:14:00,49.9,48.0,30.09,SSW,197,1.0,3.0,93,0.00,,---,0.00,VWS V14.01,2013-02-06 13:14:00,
2013-02-06 08:19:00,50.1,48.2,30.09,West,277,0.0,3.0,93,0.00,,---,0.00,VWS V14.01,2013-02-06 13:19:00,
2013-02-06 08:23:00,50.5,48.6,30.09,West,279,1.0,3.0,93,0.00,,---,0.00,VWS V14.01,2013-02-06 13:23:00,
2013-02-06 08:28:00,50.9,49.0,30.10,West,272,1.0,3.0,93,0.00,,---,0.00,VWS V14.01,2013-02-06 13:28:00,
2013-02-06 08:30:00,51.2,49.0,30.09,WNW,302,1.0,6.0,92,0.00,,---,0.00,VWS V14.01,2013-02-06 13:30:00,
2013-02-06 08:33:00,51.4,49.2,30.10,WSW,252,0.0,2.0,92,0.00,,---,0.00,VWS V14.01,2013-02-06 13:33:00,
2013-02-06 08:38:00,51.8,49.5,30.10,NNE,23,0.0,3.0,92,0.00,,---,0.00,VWS V14.01,2013-02-06 13:38:00,
2013-02-06 08:43:00,52.4,50.2,30.10,WNW,286,1.0,4.0,92,0.00,,---,0.00,VWS V14.01,2013-02-06 13:43:00,
2013-02-06 08:48:00,52.9,49.8,30.10,West,275,1.0,5.0,89,0.00,,---,0.00,VWS V14.01,2013-02-06 13:48:00,
2013-02-06 08:53:00,53.7,50.2,30.10,SW,226,2.0,5.0,88,0.00,,---,0.00,VWS V14.01,2013-02-06 13:53:00,
2013-02-06 08:58:00,54.2,50.4,30.10,NW,304,1.0,5.0,87,0.00,,---,0.00,VWS V14.01,2013-02-06 13:58:00,
2013-02-06 09:00:00,54.7,50.9,30.10,NNW,340,2.0,5.0,87,0.00,,---,0.00,VWS V14.01,2013-02-06 14:00:00,
2013-02-06 09:03:00,55.1,50.7,30.10,West,275,2.0,3.0,85,0.00,,---,0.00,VWS V14.01,2013-02-06 14:03:00,
2013-02-06 09:08:00,55.9,51.5,30.10,WNW,300,3.0,4.0,85,0.00,,---,0.00,VWS V14.01,2013-02-06 14:08:00,
2013-02-06 09:13:00,56.6,51.5,30.10,West,279,0.0,4.0,83,0.00,,---,0.00,VWS V14.01,2013-02-06 14:13:00,
2013-02-06 09:18:00,57.1,51.3,30.10,West,276,2.0,4.0,81,0.00,,---,0.00,VWS V14.01,2013-02-06 14:18:00,
2013-02-06 09:23:00,57.1,51.3,30.11,West,276,2.0,4.0,81,0.00,,---,0.00,VWS V14.01,2013-02-06 14:23:00,
2013-02-06 09:28:00,58.0,51.5,30.11,WNW,300,3.0,4.0,79,0.00,,---,0.00,VWS V14.01,2013-02-06 14:28:00,
2013-02-06 09:30:00,58.4,51.9,30.11,ESE,105,2.0,4.0,79,0.00,,---,0.00,VWS V14.01,2013-02-06 14:30:00,
2013-02-06 09:33:00,58.4,51.9,30.11,WNW,290,3.0,3.0,79,0.00,,---,0.00,VWS V14.01,2013-02-06 14:33:00,
2013-02-06 09:38:00,59.1,52.6,30.11,North,5,0.0,3.0,79,0.00,,---,0.00,VWS V14.01,2013-02-06 14:38:00,
2013-02-06 10:00:00,60.1,47.9,30.11,NW,304,0.0,0.0,64,0.00,,---,0.00,VWS V14.01,2013-02-06 15:00:00,
2013-02-06 10:30:00,64.0,49.8,30.12,SSW,198,0.0,0.0,60,0.00,,---,0.00,VWS V14.01,2013-02-06 15:30:00,
2013-02-06 11:00:00,64.3,48.3,30.12,NNW,327,0.0,0.0,56,0.00,,---,0.00,VWS V14.01,2013-02-06 16:00:00,
2013-02-06 11:30:00,64.0,49.8,30.12,SSW,198,0.0,0.0,60,0.00,,---,0.00,VWS V14.01,2013-02-06 16:30:00,
2013-02-06 12:00:00,63.7,49.6,30.11,SE,142,0.0,0.0,60,0.00,,---,0.00,VWS V14.01,2013-02-06 17:00:00,
2013-02-06 12:30:00,62.3,50.4,30.11,SSE,159,0.0,0.0,65,0.00,,---,0.00,VWS V14.01,2013-02-06 17:30:00,
2013-02-06 13:00:00,61.3,49.9,30.10,North,0,0.0,0.0,66,0.00,,---,0.00,VWS V14.01,2013-02-06 18:00:00,
2013-02-06 13:30:00,60.0,50.2,30.09,North,0,0.0,0.0,70,0.00,,---,0.00,VWS V14.01,2013-02-06 18:30:00,
2013-02-06 14:00:00,60.1,49.1,30.09,North,0,0.0,0.0,67,0.00,,---,0.00,VWS V14.01,2013-02-06 19:00:00,
2013-02-06 14:30:00,59.8,49.6,30.09,North,0,0.0,0.0,69,0.00,,---,0.00,VWS V14.01,2013-02-06 19:30:00,
2013-02-06 15:00:00,60.3,48.9,30.08,North,0,0.0,0.0,66,0.00,,---,0.00,VWS V14.01,2013-02-06 20:00:00,
2013-02-06 15:30:00,60.0,49.4,30.09,North,0,0.0,0.0,68,0.00,,---,0.00,VWS V14.01,2013-02-06 20:30:00,
2013-02-06 16:00:00,60.0,48.6,30.09,North,0,0.0,0.0,66,0.00,,---,0.00,VWS V14.01,2013-02-06 21:00:00,
2013-02-06 16:30:00,60.4,47.3,30.09,North,0,0.0,0.0,62,0.00,,---,0.00,VWS V14.01,2013-02-06 21:30:00,
2013-02-06 17:00:00,60.1,48.3,30.09,North,0,0.0,0.0,65,0.00,,---,0.00,VWS V14.01,2013-02-06 22:00:00,
2013-02-06 17:30:00,58.9,48.0,30.10,North,0,0.0,0.0,67,0.00,,---,0.00,VWS V14.01,2013-02-06 22:30:00,
2013-02-06 18:00:00,57.9,47.0,30.11,North,0,0.0,0.0,67,0.00,,---,0.00,VWS V14.01,2013-02-06 23:00:00,
2013-02-06 18:30:00,56.2,46.9,30.12,North,0,0.0,0.0,71,0.00,,---,0.00,VWS V14.01,2013-02-06 23:30:00,
2013-02-06 19:00:00,54.3,46.2,30.13,North,0,0.0,0.0,74,0.00,,---,0.00,VWS V14.01,2013-02-07 00:00:00,
2013-02-06 19:30:00,52.8,45.1,30.15,North,0,0.0,0.0,75,0.00,,---,0.00,VWS V14.01,2013-02-07 00:30:00,
2013-02-06 20:00:00,51.6,44.6,30.15,North,0,0.0,0.0,77,0.00,,---,0.00,VWS V14.01,2013-02-07 01:00:00,
2013-02-06 20:30:00,50.7,44.1,30.16,North,0,0.0,0.0,78,0.00,,---,0.00,VWS V14.01,2013-02-07 01:30:00,
2013-02-06 21:00:00,50.9,44.6,30.16,North,0,0.0,0.0,79,0.00,,---,0.00,VWS V14.01,2013-02-07 02:00:00,
2013-02-06 21:30:00,52.4,46.4,30.15,North,0,0.0,0.0,80,0.00,,---,0.00,VWS V14.01,2013-02-07 02:30:00,
2013-02-06 22:00:00,53.6,46.9,30.15,North,0,0.0,0.0,78,0.00,,---,0.00,VWS V14.01,2013-02-07 03:00:00,
2013-02-06 22:30:00,53.7,47.3,30.17,North,0,0.0,0.0,79,0.00,,---,0.00,VWS V14.01,2013-02-07 03:30:00,
2013-02-06 23:00:00,53.5,47.2,30.18,North,0,0.0,0.0,79,0.00,,---,0.00,VWS V14.01,2013-02-07 04:00:00,
2013-02-06 23:30:00,53.2,47.2,30.18,North,0,0.0,0.0,80,0.00,,---,0.00,VWS V14.01,2013-02-07 04:30:00,